Location: Alexandria
(38.8050°N, 77.0470°W)
Time: 01:54:22
(UTC-04:00)

Envisat - Pass Details

Date: 17 March 2018
Orbit: 764 x 766 km, 98.2° (Epoch: 24 June)

Event Time Altitude Azimuth Distance (km) Brightness Sun altitude
Rises 20:01:44 0° 148° (SSE) 3,216 5.9 -9.5°
Reaches altitude 10° 20:04:07 10° 142° (SE) 2,294 5.1 -9.9°
Maximum altitude 20:08:52 43° 71° (ENE) 1,059 3.3 -10.9°
Drops below altitude 10° 20:13:40 10° 1° (N) 2,308 5.6 -11.8°
Sets 20:16:04 0° 355° (N) 3,239 6.4 -12.2°
